Regional Weather Roundup
Issued by NWS Upton, NY

Home | Current Version | Previous Version | Text Only | Print | Product List | Glossary On
Versions: 1 2 3 4 5 6 7 8 9 10 11 12 13 14 15 16 17 18 19 20 21 22 23 24 25 26 27 28 29 30 31 32 33 34 35 36 37 38 39 40 41 42 43 44 45 46 47 48 49 50
000
ASUS41 KOKX 031508
RWROKX

REGIONAL WEATHER ROUNDUP
NATIONAL WEATHER SERVICE NEW YORK NY
1100 AM EDT SUN MAY 03 2015

NOTE: "FAIR" INDICATES FEW OR NO CLOUDS BELOW 12,000 FEET WITH NO
SIGNIFICANT WEATHER AND/OR OBSTRUCTIONS TO VISIBILITY.

NYZ071-072-176-178-NJZ106-104-031600-
NEW YORK CITY METRO AREA


CITY           SKY/WX    TMP DP  RH WIND       PRES   REMARKS
CENTRAL PARK   SUNNY     69  40  34 CALM      30.12R
LAGUARDIA APRT MOSUNNY   66  41  40 N3        30.09R
KENNEDY INTL   PTSUNNY   60  43  53 S7        30.11R
NEWARK/LIBERTY PTSUNNY   66  42  41 VRB3      30.09S
BRNX BOT. GARD   N/A     68  41  37 N2        30.10S
TETERBORO      SUNNY     69  42  37 CALM      30.08R
$$

NYZ177-179-078>081-031600-
LONG ISLAND NEW YORK

CITY           SKY/WX    TMP DP  RH WIND       PRES   REMARKS
FARMINGDALE    SUNNY     61  46  57 S10       30.10R
ISLIP          MOSUNNY   60  45  57 S12       30.09R
SHIRLEY        SUNNY     60  44  55 SW10      30.11R
WESTHAMPTON    SUNNY     59  40  49 SW10      30.12R
MONTAUK POINT    N/A     61  39  44 VRB7      30.10S
$$

NYZ052-065-067-031600-
HUDSON VALLEY

CITY           SKY/WX    TMP DP  RH WIND       PRES   REMARKS
WHITE PLAINS   SUNNY     69  40  34 VRB3      30.08R
NEWBURGH       SUNNY     68  45  42 CALM      30.09
MONTGOMERY     SUNNY     72  44  36 CALM      30.07S
POUGHKEEPSIE   SUNNY     69  41  36 CALM      30.07S
ALBANY         MOSUNNY   70  42  36 CALM      30.06S
$$

NJZ001-105-106-008-010-013-015-019>022-104-031600-
NEW JERSEY

CITY           SKY/WX    TMP DP  RH WIND       PRES   REMARKS
NEWARK/LIBERTY PTSUNNY   66  42  41 VRB3      30.09S
TETERBORO      SUNNY     69  42  37 CALM      30.08R
CALDWELL       SUNNY     70  40  33 CALM      30.09S
MORRISTOWN     MOSUNNY   72  43  35 CALM      30.09R
SOMERVILLE     SUNNY     71  44  37 CALM      30.07S
SUSSEX         SUNNY     71  43  36 CALM      30.09S
ANDOVER          N/A     70  39  32 VRB3      30.10R
TRENTON        SUNNY     69  45  41 CALM      30.10R
MILLVILLE      SUNNY     67  50  54 N3        30.11R
ATLANTIC CITY  MOSUNNY   67  48  50 CALM      30.11R
WRIGHTSTOWN    SUNNY     68  48  48 NW1       30.09R
TOMS RIVER     SUNNY     68  45  42 CALM      30.11S
BELMAR         SUNNY     66  45  45 CALM      30.11R
$$

PAZ047>061-062-071-031600-
EASTERN PENNSYLVANIA

CITY           SKY/WX    TMP DP  RH WIND       PRES   REMARKS
PHILADELPHIA   MOSUNNY   69  45  41 CALM      30.11S
ALLENTOWN      SUNNY     71  40  32 CALM      30.10S
SCRANTON       SUNNY     70  36  28 W6        30.11R
$$

CTZ002-004>006-009-010-012-RIZ004-006-007-MAZ004-011-015-031600-
SOUTHERN NEW ENGLAND
 IN CT

CITY           SKY/WX    TMP DP  RH WIND       PRES   REMARKS
BRADLEY INTL   MOSUNNY   67  42  40 CALM      30.05F
HARTFORD       SUNNY     65  42  43 SE8       30.07S
DANBURY        SUNNY     70  39  32 CALM      30.08S
WTRBRY/OXFORD  SUNNY     70  45  40 CALM      30.09R
BRIDGEPORT     SUNNY     58  42  55 SW10      30.09R
MERIDEN        SUNNY     67  41  38 SE6       30.07S
NEW HAVEN      SUNNY     55  43  63 SW8       30.09R
CHESTER        FAIR      64  41  42 CALM      30.08S
GROTON         SUNNY     56  40  55 SW14      30.08S
WILLIMANTIC    SUNNY     66  40  38 CALM      30.07S

 IN RI

CITY           SKY/WX    TMP DP  RH WIND       PRES   REMARKS
PROVIDENCE     PTSUNNY   60  39  45 SE6       30.08R
BLOCK ISLAND   SUNNY     54  37  54 SW13      30.11R
WESTERLY       MOSUNNY   57  37  47 SW9       30.10R

 IN MA

CITY           SKY/WX    TMP DP  RH WIND       PRES   REMARKS
BOSTON         MOSUNNY   58  43  57 SE8       30.07R
WORCESTER      SUNNY     68  39  34 E6        30.06R
WESTFIELD      SUNNY     68  42  38 E5        30.05F
PROVINCETOWN   PTSUNNY   55  43  62 S10       30.10S
NANTUCKET      SUNNY     51  40  65 S10       30.13R
$$

ANZ330-335-338-340-345-350-353-355-031600-
COASTAL MARINE OBSERVATIONS


STATION/POSITION TIME  SKY/WX   TEMP    WIND        PRES    VSBY  WAVE
                                AIR SEA DIR/SP/G                  HT/PER
                 (UTC)          (F)     (DEG/KT/KT) (MB)    (MI)  (FT/S)
NY HARB ENTRANCE 1450            50 51  180/  8/ 10 1019.3          4/ 7
4S FIRE IS       1403               48                N/A           4/ 9
20S FIRE ISLAND  1450            48 47  180/  6/  8 1019.9          4/13
GREAT SOUTH BAY  1400            50 56  220/  8/ 10   N/A
23SW MTP         1450            46 45  200/  8/  8 1019.7          4/ 8
HUDSON CANYON    NOT AVBL
EXECUTION ROCKS  NOT AVBL
WESTERN LI SOUND NOT AVBL
CENTRAL LI SOUND NOT AVBL
EASTERN LI SOUND 1400            53     250/  6/  8   N/A
ROBBINS REEF     1412            54     160/  6/  6 1018.0
$$


>>>>>>>>>>>>>>>>>>>>>>>>>>>> KEY <<<<<<<<<<<<<<<<<<<<<<<<<<<
>                                                          <
>     SKY/WX - SKY CONDITION/PRESENT WEATHER               <
>     TMP    - TEMPERATURE IN FAHRENHEIT                   <
>     DP     - DEWPOINT IN FAHRENHEIT                      <
>     RH     - RELATIVE HUMIDITY IN PERCENT                <
>     WIND   - DIRECTION AND SPEED IN MPH                  <
>     PRES   - MEAN SEA LEVEL PRESSURE IN INCHES OF HG     <
>     WCI    - WIND CHILL INDEX                            <
>     VSB    - VISIBILITY IN MILES                         <
>     HX     - HEAT INDEX                                  <
>     TC     - TEMPERATURE IN CELSIUS                      <
>     VRB    - VARIABLE WIND DIRECTION                     <
>                                                          <
>>>>>>>>>>>>>>>>>>>>>>>>>>>> KEY <<<<<<<<<<<<<<<<<<<<<<<<<<<





USA.gov is the U.S. government's official web portal to all federal, state and local government web resources and services.